This demonstration page uses our WeatherBlox Daily Observations layout. Learn more.

Left ArrowRight Arrow

41.86663, -103.66717

Hourly Observations for April 15, 2017

Temp ( °F °C ) Dew Point ( °F °C ) Humidity (%) Winds ( mph kmh ) Pressure ( in mb ) Visibility ( mi km ) Precip ( " mm )
12:53 am 00:53 Clear 52 11.1 42 5.6 69 69 NNW 7 11 29.73 1007 10 16.0934 N/A
1:53 am 01:53 Clear 50 10 41 5 71 71 N 13 20 29.73 1007 10 16.0934 N/A
2:53 am 02:53 Clear 49 9.4 39 3.9 69 69 N 8 13 29.76 1008 10 16.0934 N/A
3:53 am 03:53 Clear 47 8.3 38 3.3 71 71 WNW 9 15 29.8 1009 10 16.0934 N/A
4:53 am 04:53 Clear 43 6.1 37 2.8 80 80 WNW 7 11 29.84 1010 10 16.0934 N/A
5:53 am 05:53 Clear 39 3.9 35 1.7 86 86 WNW 7 11 29.87 1011 10 16.0934 N/A
6:53 am 06:53 Sunny 39 3.9 35 1.7 86 86 NW 6 9 29.91 1013 10 16.0934 N/A
7:53 am 07:53 Mostly Sunny 46 7.8 37 2.8 71 71 WNW 10 17 29.94 1014 10 16.0934 N/A
8:53 am 08:53 Mostly Sunny 51 10.6 31 -0.6 46 46 WNW 12 19 29.94 1014 10 16.0934 N/A
9:53 am 09:53 Mostly Cloudy 57 13.9 30 -1.1 36 36 WNW 16 26 29.93 1014 10 16.0934 N/A
10:53 am 10:53 Sunny 59 15 22 -5.6 24 24 WNW 16 26 29.95 1014 10 16.0934 N/A
11:53 am 11:53 Sunny 61 16.1 19 -7.2 20 20 WNW 20 31 29.93 1013 10 16.0934 N/A
12:53 pm 12:53 Sunny 63 17.2 19 -7.2 18 18 W 15 24 29.92 1013 10 16.0934 N/A
1:53 pm 13:53 Sunny 64 17.8 19 -7.2 18 18 NW 14 22 29.92 1013 10 16.0934 N/A
2:53 pm 14:53 Sunny 66 18.9 19 -7.2 16 16 WNW 17 28 29.91 1013 10 16.0934 N/A
3:53 pm 15:53 Sunny 66 18.9 18 -7.8 16 16 NW 17 28 29.9 1013 10 16.0934 N/A
4:53 pm 16:53 Sunny 65 18.3 18 -7.8 16 16 N 12 19 29.92 1013 10 16.0934 N/A
5:53 pm 17:53 Sunny 64 17.8 17 -8.3 16 16 NNW 10 17 29.94 1014 10 16.0934 N/A
6:53 pm 18:53 Sunny 61 16.1 17 -8.3 18 18 N 9 15 29.97 1015 10 16.0934 N/A
7:53 pm 19:53 Clear 50 10 20 -6.7 30 30 NE 9 15 30.01 1016 10 16.0934 N/A
8:53 pm 20:53 Clear 45 7.2 20 -6.7 37 37 NE 7 11 30.04 1017 10 16.0934 N/A
9:53 pm 21:53 Clear 45 7.2 23 -5 42 42 SE 3 6 30.04 1017 10 16.0934 N/A
10:53 pm 22:53 Clear 40 4.4 24 -4.4 53 53 N 3 6 30.04 1017 10 16.0934 N/A
11:53 pm 23:53 Clear 37 2.8 23 -5 57 57 NE 7 11 30.05 1018 10 16.0934 N/A

Powered by AerisWeather